SL-16 R/B (25400 NORAD) Tracking and Keplerian Element Data

This shows tracking and keplerian element data for the satellite.

Feedback or suggestion? Click here.




ElementValue
Catalog25400
NameSL-16 R/B
Epoch Orbit4121
Epoch Day198.90104233
Epoch Year2018
RAAN140.5503
Inclination98.5343
Eccentricity0.0009195
Argument of Perigee213.8167
Mean Anonmoly146.2428
Mean Motion14.25430201
Decay Rate-1.9E-07
L11 25400U 98043G 18198.90104233 -.00000019 00000-0 10056-4 0 9991
L22 25400 98.5343 140.5503 0009195 213.8167 146.2428 14.25430201 41212

Live tracking and technical data element details for SL-16 R/B (NORAD 25400). SL-16 R/B can be tracked NOW for your location showing map with azimuth and elevation plus other details from your city location.

Track the satellite on the map from your city or location and see movement details for azimuth, elevation, latitude, longitude, range, height, and movement on the map or in text.







IsCatalogInMostPopularTable: catalog: 25400, numindb: 25
Update: records affected: 1



GetName: 25400 SL-16 R/B

Hit Count: updated at: Thu, 19 Jul 2018 03:40:59 GMT